When you browse on this site, cookies collect data to enhance your experience and personalize the content and advertising you see.
Visit our Privacy Policy to learn more. By continuing to use the site, you agree to this use of cookies and data.
  • In Netherlands
  • List of Countries
  • For 7 days
  • Water Temperature
  • Weather Map
  • Weather Widgets
  • user-avatar
    Login

    Hourly Weather Suhotskoe

    Today, 29 March, Sunday

    Time Temperature Precipitation Wind Pressure Humidity
    00:00 +7°C° 0 mm 2 mps 740 mmHg 65%
    01:00 +7°C° 0 mm 2 mps 740 mmHg 67%
    02:00 +7°C° 0 mm 1 mps 739 mmHg 70%
    03:00 +7°C° 0 mm 1 mps 739 mmHg 72%
    04:00 +6°C° 0 mm 1 mps 739 mmHg 73%
    05:00 +6°C° 0 mm 1 mps 738 mmHg 74%
    06:00 +5°C° 0 mm 2 mps 738 mmHg 75%
    07:00 +7°C° 0 mm 2 mps 738 mmHg 69%
    08:00 +8°C° 0 mm 2 mps 738 mmHg 63%
    09:00 +11°C° 0 mm 1 mps 737 mmHg 56%
    10:00 +13°C° 0 mm 1 mps 737 mmHg 52%
    11:00 +15°C° 0 mm 1 mps 737 mmHg 48%
    12:00 +18°C° 0 mm 1 mps 736 mmHg 44%
    13:00 +18°C° 0 mm 1 mps 736 mmHg 43%
    14:00 +19°C° 0 mm 1 mps 735 mmHg 42%
    15:00 +19°C° 0 mm 2 mps 735 mmHg 40%
    16:00 +18°C° 0 mm 2 mps 735 mmHg 44%
    17:00 +17°C° 0 mm 2 mps 735 mmHg 47%
    18:00 +16°C° 0 mm 1 mps 735 mmHg 51%
    19:00 +15°C° 0 mm 2 mps 735 mmHg 52%
    20:00 +14°C° 0 mm 2 mps 735 mmHg 54%
    21:00 +13°C° 0 mm 2 mps 735 mmHg 56%
    22:00 +12°C° 0 mm 2 mps 735 mmHg 57%
    23:00 +12°C° 0 mm 1 mps 735 mmHg 58%

    Tomorrow, 30 March, Monday

    Time Temperature Precipitation Wind Pressure Humidity
    00:00 +11°C° 0 mm 1 mps 735 mmHg 59%
    01:00 +11°C° 0 mm 1 mps 735 mmHg 60%
    02:00 +11°C° 0 mm 1 mps 735 mmHg 60%
    03:00 +10°C° 0 mm 2 mps 734 mmHg 61%
    04:00 +9°C° 0 mm 2 mps 735 mmHg 62%
    05:00 +9°C° 0 mm 2 mps 735 mmHg 62%
    06:00 +9°C° 0 mm 2 mps 735 mmHg 63%
    07:00 +10°C° 0 mm 2 mps 735 mmHg 63%
    08:00 +10°C° 0 mm 3 mps 736 mmHg 62%
    09:00 +11°C° 0 mm 3 mps 736 mmHg 62%
    10:00 +12°C° 0 mm 3 mps 736 mmHg 61%
    11:00 +12°C° 0 mm 4 mps 736 mmHg 61%
    12:00 +13°C° 0 mm 4 mps 736 mmHg 61%
    13:00 +13°C° 0.1 mm 4 mps 736 mmHg 62%
    14:00 +13°C° 0.1 mm 4 mps 736 mmHg 64%
    15:00 +13°C° 0.1 mm 4 mps 736 mmHg 65%
    16:00 +12°C° 0.4 mm 5 mps 737 mmHg 71%
    17:00 +10°C° 0.4 mm 5 mps 737 mmHg 77%
    18:00 +10°C° 0.4 mm 5 mps 737 mmHg 82%
    19:00 +9°C° 0.5 mm 5 mps 738 mmHg 84%
    20:00 +10°C° 0.5 mm 4 mps 739 mmHg 87%
    21:00 +10°C° 0.5 mm 4 mps 739 mmHg 89%
    22:00 +10°C° 1.1 mm 4 mps 739 mmHg 90%
    23:00 +10°C° 1.1 mm 4 mps 740 mmHg 91%

    Day after tomorrow, 31 March, Tuesday

    Time Temperature Precipitation Wind Pressure Humidity
    00:00 +10°C° 1.1 mm 4 mps 740 mmHg 91%
    01:00 +10°C° 1.1 mm 4 mps 740 mmHg 91%
    02:00 +10°C° 1.1 mm 4 mps 740 mmHg 91%
    03:00 +9°C° 1.1 mm 3 mps 741 mmHg 90%
    04:00 +9°C° 0.5 mm 3 mps 741 mmHg 90%
    05:00 +9°C° 0.5 mm 3 mps 741 mmHg 91%
    06:00 +9°C° 0.5 mm 2 mps 742 mmHg 91%
    07:00 +10°C° 0.4 mm 3 mps 742 mmHg 89%
    08:00 +10°C° 0.4 mm 3 mps 742 mmHg 87%
    09:00 +10°C° 0.4 mm 3 mps 742 mmHg 84%
    10:00 +11°C° 0.1 mm 3 mps 742 mmHg 78%
    11:00 +12°C° 0.1 mm 3 mps 743 mmHg 71%
    12:00 +14°C° 0.1 mm 3 mps 743 mmHg 64%
    13:00 +14°C° 0.1 mm 3 mps 742 mmHg 61%
    14:00 +16°C° 0.1 mm 3 mps 742 mmHg 57%
    15:00 +17°C° 0.1 mm 3 mps 742 mmHg 54%
    16:00 +16°C° 0.2 mm 2 mps 742 mmHg 58%
    17:00 +15°C° 0.2 mm 2 mps 742 mmHg 63%
    18:00 +15°C° 0.2 mm 1 mps 742 mmHg 67%
    19:00 +14°C° 0.1 mm 1 mps 743 mmHg 70%
    20:00 +13°C° 0.1 mm 2 mps 743 mmHg 72%
    21:00 +12°C° 0.1 mm 2 mps 743 mmHg 74%
    22:00 +12°C° 0 mm 2 mps 743 mmHg 75%
    23:00 +12°C° 0 mm 2 mps 743 mmHg 76%

    1 April, Wednesday

    Time Temperature Precipitation Wind Pressure Humidity
    00:00 +11°C° 0 mm 1 mps 743 mmHg 77%
    01:00 +11°C° 0 mm 1 mps 743 mmHg 78%
    02:00 +10°C° 0 mm 1 mps 743 mmHg 79%
    03:00 +10°C° 0 mm 1 mps 743 mmHg 81%
    04:00 +9°C° 0 mm 0 mps 743 mmHg 81%
    05:00 +9°C° 0 mm 0 mps 743 mmHg 81%
    06:00 +9°C° 0 mm 0 mps 743 mmHg 81%
    07:00 +11°C° 0 mm 1 mps 743 mmHg 78%
    08:00 +11°C° 0 mm 1 mps 743 mmHg 75%
    09:00 +12°C° 0 mm 2 mps 743 mmHg 72%
    10:00 +13°C° 0 mm 2 mps 743 mmHg 67%
    11:00 +14°C° 0 mm 3 mps 743 mmHg 62%
    12:00 +15°C° 0 mm 4 mps 743 mmHg 57%
    13:00 +15°C° 0 mm 4 mps 742 mmHg 56%
    14:00 +15°C° 0 mm 5 mps 742 mmHg 55%
    15:00 +16°C° 0 mm 5 mps 742 mmHg 54%
    16:00 +15°C° 0 mm 5 mps 742 mmHg 57%
    17:00 +14°C° 0 mm 5 mps 742 mmHg 60%
    18:00 +13°C° 0 mm 5 mps 742 mmHg 63%
    19:00 +12°C° 0.3 mm 5 mps 742 mmHg 67%
    20:00 +10°C° 0.3 mm 5 mps 742 mmHg 72%
    21:00 +9°C° 0.3 mm 5 mps 743 mmHg 76%
    22:00 +9°C° 0.3 mm 5 mps 742 mmHg 76%
    23:00 +10°C° 0.3 mm 4 mps 742 mmHg 75%

    2 April, Thursday

    Time Temperature Precipitation Wind Pressure Humidity
    00:00 +8°C° 0.3 mm 4 mps 742 mmHg 75%
    01:00 +8°C° 0.5 mm 4 mps 742 mmHg 79%
    02:00 +7°C° 0.5 mm 4 mps 742 mmHg 84%
    03:00 +7°C° 0.5 mm 4 mps 742 mmHg 88%
    04:00 +7°C° 0.6 mm 3 mps 742 mmHg 90%
    05:00 +7°C° 0.6 mm 3 mps 742 mmHg 91%
    06:00 +7°C° 0.6 mm 3 mps 742 mmHg 93%
    07:00 +7°C° 0.3 mm 3 mps 742 mmHg 93%
    08:00 +7°C° 0.3 mm 3 mps 742 mmHg 93%
    09:00 +7°C° 0.3 mm 3 mps 742 mmHg 93%
    10:00 +7°C° 0.1 mm 2 mps 742 mmHg 92%
    11:00 +7°C° 0.1 mm 2 mps 742 mmHg 91%
    12:00 +8°C° 0.1 mm 2 mps 742 mmHg 91%
    13:00 +8°C° 0 mm 2 mps 742 mmHg 89%
    14:00 +8°C° 0 mm 2 mps 742 mmHg 87%
    15:00 +9°C° 0 mm 2 mps 742 mmHg 85%
    16:00 +9°C° 0 mm 2 mps 742 mmHg 86%
    17:00 +8°C° 0 mm 2 mps 742 mmHg 87%
    18:00 +8°C° 0 mm 3 mps 742 mmHg 88%
    19:00 +8°C° 0 mm 2 mps 742 mmHg 90%
    20:00 +7°C° 0 mm 2 mps 742 mmHg 91%
    21:00 +7°C° 0 mm 2 mps 743 mmHg 93%
    22:00 +7°C° 0 mm 2 mps 742 mmHg 93%
    23:00 +7°C° 0 mm 2 mps 742 mmHg 93%

    3 April, Friday

    Time Temperature Precipitation Wind Pressure Humidity
    00:00 +6°C° 0 mm 2 mps 742 mmHg 94%
    01:00 +7°C° 0 mm 2 mps 742 mmHg 93%
    02:00 +7°C° 0 mm 2 mps 742 mmHg 93%
    03:00 +7°C° 0 mm 2 mps 741 mmHg 92%
    04:00 +7°C° 0 mm 2 mps 742 mmHg 92%
    05:00 +7°C° 0 mm 2 mps 742 mmHg 92%
    06:00 +7°C° 0 mm 2 mps 742 mmHg 92%
    07:00 +8°C° 0 mm 2 mps 742 mmHg 88%
    08:00 +8°C° 0 mm 2 mps 742 mmHg 85%
    09:00 +9°C° 0 mm 3 mps 742 mmHg 81%
    10:00 +10°C° 0 mm 3 mps 742 mmHg 76%
    11:00 +11°C° 0 mm 3 mps 742 mmHg 71%
    12:00 +12°C° 0 mm 3 mps 742 mmHg 65%
    13:00 +12°C° 0 mm 3 mps 742 mmHg 66%
    14:00 +12°C° 0 mm 3 mps 742 mmHg 66%
    15:00 +12°C° 0 mm 3 mps 742 mmHg 66%
    16:00 +12°C° 0 mm 3 mps 743 mmHg 69%
    17:00 +12°C° 0 mm 3 mps 743 mmHg 71%
    18:00 +12°C° 0 mm 2 mps 743 mmHg 73%
    19:00 +10°C° 0 mm 2 mps 744 mmHg 76%
    20:00 +9°C° 0 mm 2 mps 744 mmHg 79%
    21:00 +9°C° 0 mm 2 mps 745 mmHg 82%
    22:00 +8°C° 0 mm 2 mps 745 mmHg 84%
    23:00 +9°C° 0 mm 1 mps 745 mmHg 86%
    Show more